+11,Max TemperatureF,Mean TemperatureF,Min TemperatureF,Max Dew PointF,MeanDew PointF,Min DewpointF,Max Humidity, Mean Humidity, Min Humidity, Max Sea Level PressureIn, Mean Sea Level PressureIn, Min Sea Level PressureIn, Max VisibilityMiles, Mean VisibilityMiles, Min VisibilityMiles, Max Wind SpeedMPH, Mean Wind SpeedMPH, Max Gust SpeedMPH,PrecipitationIn, CloudCover, Events, WindDirDegrees
2012-11-1,48,40,32,45,39,30,100,91,76,30.01,29.88,29.83,12,6,2,20,14,27,0.00,5,Fog-Rain,15
2012-11-2,42,35,28,41,37,28,100,94,79,29.86,29.70,29.53,12,5,2,34,10,45,0.00,5,Rain,10
2012-11-3,44,42,41,45,42,39,100,95,84,29.76,29.59,29.47,5,3,1,31,26,42,0.00,7,Rain,9
2012-11-4,46,42,38,39,38,34,100,88,62,30.15,29.96,29.77,6,6,2,25,15,36,0.00,5,Rain,4
2012-11-5,46,39,32,36,33,29,100,80,39,30.27,30.22,30.15,6,6,2,9,4,,0.00,3,,358
2012-11-6,46,39,32,37,34,30,100,85,55,30.24,30.17,30.12,12,6,2,9,3,,0.00,5,,135
2012-11-7,48,40,32,43,39,30,100,84,66,30.13,30.04,29.95,12,6,2,18,8,25,0.00,6,Rain,63
2012-11-8,46,45,44,43,41,38,93,85,70,29.95,29.86,29.80,12,5,2,25,15,36,0.00,5,Rain,69
2012-11-9,44,40,37,41,36,28,93,79,65,30.30,30.10,29.92,6,6,2,20,14,31,0.00,6,Rain,46
2012-11-10,41,37,32,34,32,30,100,82,65,30.38,30.32,30.27,6,6,2,13,8,,0.00,5,Rain,13
2012-11-11,42,34,27,32,29,27,100,83,61,30.39,30.33,30.30,6,6,2,13,5,,0.00,2,,16
2012-11-12,43,38,32,39,35,27,93,84,64,30.30,29.99,29.74,12,6,2,18,9,29,0.00,6,Rain,112
2012-11-13,44,40,35,45,38,34,100,87,67,29.68,29.60,29.56,12,6,2,20,11,29,0.00,7,Rain,76
2012-11-14,41,37,33,39,35,32,100,90,75,29.80,29.67,29.59,6,5,2,16,11,22,0.00,6,Rain-Snow,31
2012-11-15,39,32,24,34,31,23,100,91,69,30.06,29.96,29.80,12,6,1,18,9,,0.00,4,Rain-Snow,20
2012-11-16,41,30,19,34,30,19,100,91,75,30.06,29.95,29.86,12,6,2,7,2,,0.00,4,Rain,194
2012-11-17,33,32,32,34,32,30,100,98,91,29.86,29.73,29.68,6,4,1,16,5,,0.00,5,Rain-Snow,20
2012-11-18,32,28,24,30,24,19,100,81,49,29.74,29.61,29.53,6,5,1,20,12,25,0.00,4,Snow,6
2012-11-19,65,41,17,64,19,14,97,77,47,29.87,29.82,29.63,12,6,2,11,5,,0.00,3,,314
2012-11-20,32,24,15,25,20,12,100,84,49,29.77,29.70,29.65,6,6,2,4,2,,0.00,3,Snow,6
2012-11-21,28,22,15,25,19,14,100,82,44,29.81,29.72,29.65,12,6,2,9,5,,0.00,4,Snow,336
2012-11-22,30,19,8,25,16,7,100,80,42,29.87,29.82,29.80,6,5,2,18,3,18,0.00,3,Snow,278
2012-11-23,28,20,10,23,16,7,100,84,59,29.86,29.75,29.68,12,6,1,9,3,,0.00,2,Snow,350
2012-11-24,24,14,3,18,11,0,93,85,58,29.94,29.85,29.77,6,5,2,9,2,,0.00,3,Snow,348
2012-11-25,28,20,12,19,14,1,94,81,44,30.01,29.95,29.89,12,6,2,16,2,,0.00,4,Snow,182
2012-11-26,30,22,15,30,24,16,100,96,93,29.86,29.65,29.39,6,2,1,16,5,27,0.00,4,Snow,19
2012-11-27,30,22,8,28,19,5,93,76,48,29.77,29.45,29.24,12,5,1,22,16,34,0.00,5,Snow,6
2012-11-28,33,20,6,27,14,1,93,80,64,29.99,29.90,29.74,6,5,2,16,3,,0.00,3,Snow,144
2012-11-29,36,30,23,36,26,18,100,87,57,29.78,29.56,29.42,6,4,0,20,12,29,0.00,6,Rain-Snow,212
2012-11-30,24,16,6,21,13,5,100,75,42,29.98,29.90,29.80,12,5,1,18,9,22,0.00,4,Snow,243